Location: Celina Division
(33.3022°N, 96.7580°W)
Time: 06:41:52
(UTC+00:00)

Cosmos 2228 Rocket - Pass Details

Date: 08 December 2021
Orbit: 618 x 651 km, 82.5° (Epoch: 17 January)

Event Time Altitude Azimuth Distance (km) Brightness Sun altitude
Rises 12:15:25 0° 359° (N) 2,946 6.3 -13.0°
Reaches altitude 10° 12:17:42 10° 4° (N) 2,038 5.6 -12.5°
Maximum altitude 12:22:08 53° 81° (E) 796 4.0 -11.7°
Drops below altitude 10° 12:26:34 10° 159° (SSE) 2,041 6.3 -10.8°
Sets 12:28:51 0° 164° (SSE) 2,950 7.1 -10.3°
